This is the latest recevied weather packets stored in our database for station/object SP2WPY-13. If no packets are shown the sender has not sent any weather packets the latest 10 day(s).
| Time | Temp. | Humidity | Pressure | Rain* | Wind** | Luminosity | Snow |
|---|---|---|---|---|---|---|---|
| 1787842233 | 22.78° C | 68% | 1026.2 hPa | - | - | - | - |
| 1787841914 | 23.33° C | 68% | 1026.1 hPa | - | - | - | - |
| 1787841639 | 23.33° C | 69% | 1026.2 hPa | - | - | - | - |
| 1787841318 | 23.33° C | 68% | 1026.2 hPa | - | - | - | - |
| 1787841043 | 23.33° C | 64% | 1026.2 hPa | - | - | - | - |
| 1787840724 | 23.33° C | 66% | 1026.2 hPa | - | - | - | - |
| 1787840404 | 23.33° C | 67% | 1026.3 hPa | - | - | - | - |
| 1787840131 | 23.33° C | 66% | 1026.3 hPa | - | - | - | - |
| 1787839810 | 23.33° C | 64% | 1026.4 hPa | - | - | - | - |
| 1787839536 | 22.78° C | 61% | 1026.4 hPa | - | - | - | - |
| 1787839216 | 23.33° C | 63% | 1026.4 hPa | - | - | - | - |
| 1787838943 | 23.33° C | 61% | 1026.4 hPa | - | - | - | - |
| 1787838621 | 23.89° C | 62% | 1026.5 hPa | - | - | - | - |
| 1787838301 | 23.33° C | 60% | 1026.4 hPa | - | - | - | - |
| 1787838027 | 23.33° C | 58% | 1026.4 hPa | - | - | - | - |
| 1787837707 | 23.89° C | 61% | 1026.6 hPa | - | - | - | - |
| 1787837433 | 23.33° C | 62% | 1026.6 hPa | - | - | - | - |
| 1787837112 | 23.33° C | 58% | 1026.6 hPa | - | - | - | - |
| 1787836839 | 23.89° C | 57% | 1026.7 hPa | - | - | - | - |
| 1787836518 | 23.33° C | 59% | 1026.6 hPa | - | - | - | - |
| 1787836244 | 23.33° C | 61% | 1026.7 hPa | - | - | - | - |
| 1787835923 | 23.33° C | 61% | 1026.7 hPa | - | - | - | - |
| 1787835603 | 23.33° C | 60% | 1026.7 hPa | - | - | - | - |
| 1787835329 | 23.33° C | 62% | 1026.8 hPa | - | - | - | - |
| 1787835009 | 22.78° C | 62% | 1026.8 hPa | - | - | - | - |
* Rain since midnight (hover to see other rain measurements)
** Current wind speed in m/s (hover to see current wind gust speed)